Grass Valley, CA

9:56 PM PST on December 12, 2017 (GMT -0800)
Grass Valley

Weather History for KGOO - April, 2014

Change the Weather History Date:

Monday, April 14, 2014

  Actual Average (KAUN) Record (KAUN)
Temperature  
Mean Temperature 64 °F -  
Max Temperature 71 °F 66 °F 88 °F (1962)
Min Temperature 57 °F 45 °F 33 °F (2005)
Degree Days  
Heating Degree Days 1    
Growing Degree Days 14 (Base 50)    
Moisture  
Dew Point 25 °F    
Average Humidity 26    
Maximum Humidity 59    
Minimum Humidity 9    
Precipitation  
Precipitation 0.00 in - - ()
Sea Level Pressure  
Sea Level Pressure 30.10 in    
Wind  
Wind Speed 7 mph (SE)    
Max Wind Speed 14 mph    
Max Gust Speed 21 mph    
Visibility 10 miles    
Events      
Averages and records for this station are not official NWS values.
T = Trace of Precipitation, MM = Missing Value Source: NWS Daily Summary

Daily Weather History Graph

Daily Weather History Graph

Search for Another Location

Airport or City:

Trip Planner

Search our weather history database for the weather conditions in past years. The results will help you decide how hot, cold, wet, or windy it might be!

Date:

Astronomy

Apr. 14, 2014 Rise Set
Actual Time 6:28 AM PDT 7:40 PM PDT
Civil Twilight 6:00 AM PDT 8:08 PM PDT
Nautical Twilight 5:27 AM PDT 8:41 PM PDT
Astronomical Twilight 4:53 AM PDT 9:16 PM PDT
Moon 7:24 PM PDT (4/14) 6:03 AM PDT (4/14)
Length of Visible Light 14h 07m
Length of Day
13h 12m
Full, 100% of the Moon is Illuminated
Apr 14
Full
Apr 15
Full
Apr 22
Last Quarter
Apr 28
New
May 6
First Quarter

Hourly Weather History & Observations

Time (PDT) Temp. Dew Point Humidity Pressure Visibility Wind Dir Wind Speed Gust Speed Precip Events Conditions
12:00 AM 62.6 °F 3.2 °F 9% 30.06 in 10.0 mi East 13.8 mph 20.7 mph N/A   Clear
12:20 AM 62.6 °F 5.0 °F 10% 30.06 in 10.0 mi East 12.7 mph - N/A   Clear
12:40 AM 60.8 °F 5.0 °F 11% 30.06 in 10.0 mi East 11.5 mph 16.1 mph N/A   Clear
1:00 AM 62.6 °F 5.0 °F 10% 30.06 in 10.0 mi East 12.7 mph - N/A   Clear
1:20 AM 60.8 °F 6.8 °F 12% 30.06 in 10.0 mi East 11.5 mph 16.1 mph N/A   Clear
1:40 AM 59.0 °F 6.8 °F 13% 30.06 in 10.0 mi East 10.4 mph - N/A   Clear
2:00 AM 60.8 °F 6.8 °F 12% 30.06 in 10.0 mi East 8.1 mph - N/A   Clear
2:20 AM 59.0 °F 6.8 °F 13% 30.06 in 10.0 mi East 9.2 mph - N/A   Clear
2:40 AM 59.0 °F 6.8 °F 13% 30.06 in 10.0 mi East 6.9 mph - N/A   Clear
3:00 AM 59.0 °F 6.8 °F 13% 30.06 in 10.0 mi East 8.1 mph - N/A   Clear
3:20 AM 59.0 °F 6.8 °F 13% 30.06 in 10.0 mi East 9.2 mph - N/A   Clear
3:40 AM 60.8 °F 5.0 °F 11% 30.06 in 10.0 mi East 9.2 mph - N/A   Clear
4:00 AM 59.0 °F 5.0 °F 12% 30.06 in 10.0 mi East 8.1 mph - N/A   Clear
4:20 AM 59.0 °F 5.0 °F 12% 30.06 in 10.0 mi East 9.2 mph - N/A   Clear
4:40 AM 59.0 °F 5.0 °F 12% 30.06 in 10.0 mi East 8.1 mph - N/A   Clear
5:00 AM 59.0 °F 5.0 °F 12% 30.06 in 10.0 mi East 9.2 mph - N/A   Clear
5:20 AM 59.0 °F 5.0 °F 12% 30.06 in 10.0 mi East 6.9 mph - N/A   Clear
5:40 AM 59.0 °F 6.8 °F 13% 30.06 in 10.0 mi ESE 3.5 mph - N/A   Clear
6:00 AM 57.2 °F 6.8 °F 13% 30.07 in 10.0 mi Calm Calm - N/A   Clear
6:20 AM 57.2 °F 6.8 °F 13% 30.07 in 10.0 mi Calm Calm - N/A   Clear
6:40 AM 57.2 °F 6.8 °F 13% 30.08 in 10.0 mi Calm Calm - N/A   Clear
7:00 AM 57.2 °F 6.8 °F 13% 30.08 in 10.0 mi ESE 3.5 mph - N/A   Clear
7:20 AM 57.2 °F 8.6 °F 14% 30.09 in 10.0 mi ESE 4.6 mph - N/A   Clear
7:40 AM 59.0 °F 10.4 °F 15% 30.09 in 10.0 mi ESE 6.9 mph - N/A   Clear
8:00 AM 57.2 °F 17.6 °F 21% 30.10 in 10.0 mi ESE 5.8 mph - N/A   Clear
8:20 AM 60.8 °F 17.6 °F 19% 30.11 in 10.0 mi ESE 4.6 mph - N/A   Clear
8:40 AM 60.8 °F 21.2 °F 22% 30.11 in 10.0 mi SE 4.6 mph - N/A   Clear
9:00 AM 62.6 °F 17.6 °F 18% 30.12 in 10.0 mi Calm Calm - N/A   Clear
9:20 AM 62.6 °F 17.6 °F 18% 30.12 in 9.0 mi Calm Calm - N/A   Clear
9:40 AM 64.4 °F 15.8 °F 15% 30.12 in 10.0 mi Calm Calm - N/A   Clear
10:00 AM 64.4 °F 15.8 °F 15% 30.13 in 10.0 mi SW 4.6 mph - N/A   Clear
10:20 AM 64.4 °F 19.4 °F 18% 30.14 in 10.0 mi South 4.6 mph - N/A   Clear
10:40 AM 64.4 °F 24.8 °F 22% 30.14 in 10.0 mi SW 5.8 mph - N/A   Clear
11:00 AM 66.2 °F 32.0 °F 28% 30.15 in 10.0 mi WSW 4.6 mph - N/A   Clear
11:20 AM 66.2 °F 32.0 °F 28% 30.15 in 10.0 mi West 4.6 mph - N/A   Clear
11:40 AM 68.0 °F 28.4 °F 23% 30.15 in 10.0 mi Calm Calm - N/A   Clear
12:00 PM 68.0 °F 30.2 °F 24% 30.15 in 10.0 mi SSE 4.6 mph - N/A   Clear
12:20 PM 69.8 °F 30.2 °F 23% 30.15 in 10.0 mi SSW 3.5 mph - N/A   Clear
12:40 PM 69.8 °F 35.6 °F 28% 30.15 in 10.0 mi SW 4.6 mph - N/A   Clear
1:00 PM 68.0 °F 32.0 °F 26% 30.14 in 10.0 mi SW 5.8 mph - N/A   Clear
1:20 PM 69.8 °F 35.6 °F 28% 30.14 in 10.0 mi Calm Calm - N/A   Clear
1:40 PM 69.8 °F 39.2 °F 33% 30.14 in 10.0 mi SSW 5.8 mph - N/A   Clear
2:00 PM 69.8 °F 37.4 °F 31% 30.13 in 10.0 mi South 5.8 mph - N/A   Clear
2:20 PM 71.6 °F 37.4 °F 29% 30.13 in 10.0 mi SW 6.9 mph - N/A   Clear
2:40 PM 71.6 °F 37.4 °F 29% 30.13 in 10.0 mi SW 6.9 mph - N/A   Clear
3:00 PM 69.8 °F 39.2 °F 33% 30.13 in 10.0 mi SSW 6.9 mph - N/A   Clear
3:20 PM 71.6 °F 37.4 °F 29% 30.13 in 10.0 mi SSW 5.8 mph - N/A   Clear
3:40 PM 69.8 °F 39.2 °F 33% 30.13 in 10.0 mi SSW 6.9 mph - N/A   Clear
4:00 PM 69.8 °F 35.6 °F 28% 30.12 in 10.0 mi SSW 3.5 mph - N/A   Clear
4:20 PM 69.8 °F 41.0 °F 35% 30.12 in 10.0 mi SSW 4.6 mph - N/A   Clear
4:40 PM 69.8 °F 39.2 °F 33% 30.12 in 10.0 mi Calm Calm - N/A   Clear
5:00 PM 69.8 °F 39.2 °F 33% 30.12 in 10.0 mi South 3.5 mph - N/A   Clear
5:20 PM 68.0 °F 39.2 °F 35% 30.12 in 10.0 mi SW 8.1 mph - N/A   Clear
5:40 PM 68.0 °F 39.2 °F 35% 30.11 in 10.0 mi South 3.5 mph - N/A   Clear
6:00 PM 68.0 °F 41.0 °F 37% 30.11 in 10.0 mi SSW 4.6 mph - N/A   Clear
6:20 PM 68.0 °F 41.0 °F 37% 30.11 in 10.0 mi South 3.5 mph - N/A   Clear
6:40 PM 66.2 °F 41.0 °F 40% 30.10 in 10.0 mi Calm Calm - N/A   Clear
7:00 PM 66.2 °F 41.0 °F 40% 30.11 in 9.0 mi Calm Calm - N/A   Clear
7:20 PM 64.4 °F 41.0 °F 42% 30.10 in 10.0 mi Calm Calm - N/A   Clear
7:40 PM 62.6 °F 41.0 °F 45% 30.10 in 10.0 mi Calm Calm - N/A   Clear
8:00 PM 62.6 °F 41.0 °F 45% 30.10 in 10.0 mi SE 3.5 mph - N/A   Clear
8:20 PM 62.6 °F 41.0 °F 45% 30.10 in 10.0 mi Calm Calm - N/A   Clear
8:40 PM 62.6 °F 41.0 °F 45% 30.11 in 10.0 mi Calm Calm - N/A   Clear
9:20 PM 62.6 °F 42.8 °F 48% 30.12 in 10.0 mi ESE 4.6 mph - N/A   Clear
9:40 PM 62.6 °F 42.8 °F 48% 30.12 in 10.0 mi SE 5.8 mph - N/A   Clear
10:20 PM 62.6 °F 44.6 °F 52% 30.12 in 10.0 mi ESE 4.6 mph - N/A   Clear
10:40 PM 62.6 °F 44.6 °F 52% 30.12 in 10.0 mi ESE 4.6 mph - N/A   Clear
11:00 PM 62.6 °F 44.6 °F 52% 30.11 in 10.0 mi ESE 5.8 mph - N/A   Clear
11:20 PM 59.0 °F 44.6 °F 59% 30.11 in 10.0 mi SE 5.8 mph - N/A   Clear
11:40 PM 59.0 °F 42.8 °F 55% 30.10 in 10.0 mi ESE 6.9 mph - N/A   Clear